FENGYUN 1C DEB, 32088

Orbit data source: Space-Track

FENGYUN 1C DEB, 32088 is space debris in SSO originally from a launch on Mon, 10 May 1999 UTC launched from the Taiyaun Space Center, China (TSC). Fengyun 1C debris stems from the Chinese weather satellite Fengyun-1C, which was intentionally destroyed by a Chinese anti-satellite missile in 2007. This event dramatically increased the amount of space debris, with thousands of trackable fragments posing hazards to satellites and human spaceflight. The Fengyun 1C debris cloud has become a focal point in discussions about space sustainability and the need for international regulations to prevent the creation of new debris.

Loading next visibility...
Identifier
32088, 1999-025CQE
Orbit
SSO
Country
Flag of CNCN / PRC
Related business
Manufacturer
Unknown
Mission
Spacecraft
Bus & Motor
Unknown
Mass
Unknown
Launch date (UTC)
1999-05-10 (27 years ago)
Launch vehicle
Unknown
Launch site
Taiyaun Space Center, China (TSC)
Object type
Payload
Rocket body
Debris
Shape & HBR
Unknown shape, 0.1 m
Radar Cross Section
Medium (>0.1 m² and <1 m²)

Expand to show TLE details & history
Last TLE update: 1 day ago

TLE from 1 day ago
0 FENGYUN 1C DEB
1 32088U 99025CQE 26167.03088519  .00000688  00000-0  95959-3 0  9994
2 32088 102.4068  74.0324 0463238 320.1208  36.6707 13.25765351622991
Epoch: 2026-06-16T00:44Z
TLE epoch observation values (Epoch: 2026-06-16T00:44:28.480Z)
Latitude
-0.00002°
Longitude
158.60497°
Altitude
891.313 km
Speed
7.54 km/s
True Right ascension
04h 56m 07s
True Declination
0° 00' 00"
Sunlit
Object was in daylight at epoch
Visualization orbit readout
Latitude
Unknown
Longitude
Unknown
Altitude
Unknown
Speed
Unknown
Apparent Right ascension
Unknown
Apparent Declination
Unknown
Sunlit
N/A
Visualization observer readout
Local Sidereal Time
23:22:51
Azimuth
Unknown
Elevation
Unknown
Doppler factor
Unknown
Orbital elements
Apogee altitude
1,509.467 km
Perigee altitude
811.053 km
Semi-major axis
7,538.397 km
Eccentricity
0.04632
Inclination
102.4068°
RAAN
74.0324°
Arg. of periapsis
320.1208°
True anomaly
39.99312°
Mean anomaly
36.6707°
Eccentric anomaly
38.31628°
Mean motion
3.31608 °/min
Orbital period
108.56 mins
BSTAR
0.00095959
Loading maneuver chart data...
Computing Atmospheric mass density...
Loading historical data...
Loading historical data...
Loading historical data...
Loading historical data...
Loading historical data...
Loading historical data...
Loading historical data...

Documentation

Showing up to 5 results
|